Location: Newark
(50.0306°N, 2.3272°E)
Time: 17:21:38
(UTC+00:00)

A-11 Canister half - Pass Details

Date: 11 December 2019
Orbit: 1525 x 1684 km, 47.3° (Epoch: 25 January)

Event Time Altitude Azimuth Distance (km) Brightness Sun altitude
Rises 08:46:13 0° 268° (W) 4,937 11.3 7.1°
Reaches altitude 10° 08:49:24 10° 267° (W) 3,950 10.8 7.4°
Maximum altitude 08:59:33 77° 184° (S) 1,711 9.6 8.4°
Drops below altitude 10° 09:09:31 10° 101° (E) 3,881 11.9 9.4°
Sets 09:12:36 0° 100° (E) 4,848 12.4 9.7°
